| time (UTC) | temp F | wind direction | speed MPH | gust MPH | rain 1hr in | rain 24hr in | rain mn in | humidity % | barometer mb |
| 20260508145102 | 68 | 195 | 1.0 | 1.0 | 0.00 | 0.01 | 0.01 | 71 | 1015.6 |
| 20260508144559 | 69 | 151 | 1.0 | 1.0 | 0.00 | 0.01 | 0.01 | 71 | 1015.4 |
| 20260508144051 | 68 | 173 | 2.0 | 2.0 | 0.00 | 0.01 | 0.01 | 71 | 1015.9 |
| 20260508143548 | 68 | 110 | 2.0 | 2.0 | 0.00 | 0.01 | 0.01 | 72 | 1015.9 |
| 20260508143045 | 68 | 194 | 1.0 | 1.0 | 0.00 | 0.01 | 0.01 | 73 | 1015.9 |
| 20260508142542 | 68 | 150 | 3.0 | 3.0 | 0.00 | 0.01 | 0.01 | 73 | 1016.1 |
| 20260508142038 | 67 | 140 | 3.0 | 3.0 | 0.00 | 0.01 | 0.01 | 72 | 1016.0 |
| 20260508141534 | 68 | 113 | 2.0 | 2.0 | 0.00 | 0.01 | 0.01 | 73 | 1016.1 |
| 20260508141032 | 68 | 109 | 2.0 | 3.0 | 0.00 | 0.01 | 0.01 | 71 | 1016.2 |
| 20260508140529 | 68 | 191 | 4.0 | 5.0 | 0.00 | 0.01 | 0.01 | 72 | 1016.3 |
| 20260508140026 | 67 | 114 | 2.0 | 2.0 | 0.00 | 0.01 | 0.01 | 74 | 1016.1 |
| 20260508135521 | 66 | 148 | 1.0 | 2.0 | 0.00 | 0.01 | 0.01 | 77 | 1016.2 |
| 20260508135018 | 66 | 186 | 0.0 | 1.0 | 0.00 | 0.01 | 0.01 | 79 | 1016.0 |
| 20260508134515 | 65 | 162 | 2.0 | 3.0 | 0.00 | 0.01 | 0.01 | 80 | 1015.9 |
| 20260508134012 | 65 | 152 | 0.0 | 1.0 | 0.00 | 0.01 | 0.01 | 82 | 1016.2 |
| 20260508133509 | 64 | 157 | 0.0 | 0.0 | 0.00 | 0.01 | 0.01 | 84 | 1015.8 |
| 20260508133006 | 64 | 170 | 1.0 | 1.0 | 0.00 | 0.01 | 0.01 | 85 | 1016.0 |
| 20260508132504 | 64 | 140 | 2.0 | 3.0 | 0.00 | 0.01 | 0.01 | 86 | 1016.1 |
| 20260508132000 | 64 | 162 | 1.0 | 1.0 | 0.00 | 0.01 | 0.01 | 86 | 1016.3 |
| 20260508131455 | 63 | 180 | 0.0 | 1.0 | 0.00 | 0.01 | 0.01 | 86 | 1016.4 |
| 20260508130952 | 63 | 176 | 0.0 | 1.0 | 0.00 | 0.01 | 0.01 | 86 | 1016.4 |
| 20260508130450 | 63 | 177 | 0.0 | 1.0 | 0.00 | 0.01 | 0.01 | 86 | 1016.2 |
| 20260508125945 | 63 | 164 | 1.0 | 1.0 | 0.00 | 0.01 | 0.01 | 86 | 1016.2 |
| 20260508125441 | 62 | 189 | 0.0 | 1.0 | 0.00 | 0.01 | 0.01 | 87 | 1016.4 |
| 20260508124939 | 62 | 189 | 0.0 | 0.0 | 0.00 | 0.01 | 0.01 | 88 | 1016.2 |
| 20260508124437 | 62 | 188 | 0.0 | 0.0 | 0.00 | 0.01 | 0.01 | 89 | 1016.2 |
| 20260508123934 | 62 | 189 | 0.0 | 0.0 | 0.00 | 0.01 | 0.01 | 89 | 1016.5 |
| 20260508123433 | 61 | 189 | 0.0 | 0.0 | 0.00 | 0.01 | 0.01 | 90 | 1016.5 |
| 20260508122929 | 61 | 189 | 0.0 | 0.0 | 0.00 | 0.01 | 0.01 | 91 | 1016.6 |
| 20260508122426 | 61 | 189 | 0.0 | 0.0 | 0.00 | 0.01 | 0.01 | 91 | 1016.3 |
| 20260508121923 | 61 | 189 | 0.0 | 0.0 | 0.00 | 0.01 | 0.01 | 91 | 1016.3 |
| 20260508121421 | 61 | 189 | 0.0 | 0.0 | 0.00 | 0.01 | 0.01 | 91 | 1016.4 |
| 20260508120918 | 61 | 189 | 0.0 | 0.0 | 0.00 | 0.01 | 0.01 | 92 | 1016.2 |
| 20260508120416 | 61 | 189 | 0.0 | 0.0 | 0.00 | 0.01 | 0.01 | 92 | 1016.4 |
| 20260508115913 | 61 | 186 | 0.0 | 0.0 | 0.00 | 0.01 | 0.01 | 92 | 1016.5 |
| 20260508115412 | 61 | 183 | 0.0 | 0.0 | 0.00 | 0.01 | 0.01 | 92 | 1016.3 |
| 20260508114907 | 61 | 183 | 0.0 | 0.0 | 0.00 | 0.01 | 0.01 | 92 | 1016.2 |
| 20260508114404 | 61 | 183 | 0.0 | 0.0 | 0.00 | 0.01 | 0.01 | 93 | 1016.3 |
| 20260508113901 | 61 | 183 | 0.0 | 0.0 | 0.00 | 0.01 | 0.01 | 93 | 1016.5 |
| 20260508113359 | 61 | 183 | 0.0 | 0.0 | 0.00 | 0.01 | 0.01 | 93 | 1016.4 |
| 20260508112856 | 61 | 177 | 1.0 | 1.0 | 0.00 | 0.01 | 0.01 | 93 | 1016.5 |
| 20260508112353 | 61 | 185 | 1.0 | 2.0 | 0.00 | 0.01 | 0.01 | 93 | 1016.4 |
| 20260508111849 | 61 | 187 | 2.0 | 2.0 | 0.00 | 0.01 | 0.01 | 93 | 1016.4 |
| 20260508111346 | 61 | 196 | 1.0 | 2.0 | 0.00 | 0.01 | 0.01 | 93 | 1016.7 |
| 20260508110843 | 60 | 200 | 1.0 | 2.0 | 0.00 | 0.01 | 0.01 | 93 | 1016.7 |
| 20260508110341 | 60 | 245 | 0.0 | 0.0 | 0.00 | 0.01 | 0.01 | 94 | 1017.0 |
| 20260508105840 | 61 | 271 | 0.0 | 0.0 | 0.00 | 0.01 | 0.01 | 94 | 1017.1 |
| 20260508105337 | 60 | 275 | 1.0 | 2.0 | 0.00 | 0.01 | 0.01 | 94 | 1017.0 |
| 20260508104834 | 60 | 218 | 0.0 | 0.0 | 0.00 | 0.01 | 0.01 | 94 | 1016.6 |
| 20260508104331 | 60 | 193 | 0.0 | 0.0 | 0.00 | 0.01 | 0.01 | 94 | 1016.3 |
| 20260508103829 | 60 | 192 | 0.0 | 0.0 | 0.00 | 0.01 | 0.01 | 93 | 1015.9 |
| 20260508103325 | 60 | 192 | 0.0 | 0.0 | 0.00 | 0.01 | 0.01 | 93 | 1015.8 |
| 20260508102823 | 60 | 192 | 0.0 | 0.0 | 0.00 | 0.01 | 0.01 | 93 | 1015.6 |
| 20260508102321 | 60 | 192 | 0.0 | 0.0 | 0.00 | 0.01 | 0.01 | 93 | 1015.5 |
| 20260508101818 | 60 | 192 | 0.0 | 0.0 | 0.00 | 0.01 | 0.01 | 93 | 1015.5 |
| 20260508101315 | 60 | 192 | 0.0 | 0.0 | 0.00 | 0.01 | 0.01 | 93 | 1015.5 |
| 20260508100813 | 60 | 191 | 0.0 | 0.0 | 0.00 | 0.01 | 0.01 | 93 | 1015.5 |
| 20260508100311 | 60 | 191 | 0.0 | 0.0 | 0.00 | 0.01 | 0.01 | 94 | 1015.5 |
| 20260508095806 | 60 | 192 | 0.0 | 0.0 | 0.00 | 0.01 | 0.01 | 94 | 1015.5 |
| 20260508095306 | 61 | 192 | 0.0 | 0.0 | 0.00 | 0.01 | 0.01 | 94 | 1015.4 |
| 20260508094801 | 60 | 192 | 0.0 | 0.0 | 0.00 | 0.01 | 0.01 | 94 | 1015.5 |
| 20260508094258 | 60 | 192 | 0.0 | 0.0 | 0.00 | 0.01 | 0.01 | 93 | 1015.6 |
| 20260508093755 | 61 | 192 | 0.0 | 0.0 | 0.00 | 0.01 | 0.01 | 93 | 1015.6 |
| 20260508093253 | 61 | 192 | 0.0 | 0.0 | 0.00 | 0.01 | 0.01 | 93 | 1015.9 |
| 20260508092749 | 61 | 192 | 0.0 | 0.0 | 0.00 | 0.01 | 0.01 | 93 | 1015.9 |
| 20260508092248 | 61 | 191 | 0.0 | 0.0 | 0.00 | 0.01 | 0.01 | 93 | 1015.6 |
| 20260508091745 | 61 | 191 | 0.0 | 0.0 | 0.00 | 0.01 | 0.01 | 93 | 1015.7 |
| 20260508091242 | 61 | 190 | 0.0 | 0.0 | 0.00 | 0.01 | 0.01 | 93 | 1015.7 |
| 20260508090740 | 61 | 190 | 0.0 | 0.0 | 0.00 | 0.01 | 0.01 | 92 | 1015.6 |
| 20260508090237 | 61 | 193 | 0.0 | 1.0 | 0.00 | 0.01 | 0.01 | 92 | 1015.8 |
| 20260508085733 | 61 | 193 | 0.0 | 0.0 | 0.00 | 0.01 | 0.01 | 92 | 1015.9 |
| 20260508085230 | 61 | 192 | 0.0 | 1.0 | 0.00 | 0.01 | 0.01 | 92 | 1015.6 |
| 20260508084726 | 61 | 184 | 0.0 | 0.0 | 0.00 | 0.01 | 0.01 | 92 | 1015.7 |
| 20260508084224 | 61 | 175 | 0.0 | 0.0 | 0.00 | 0.01 | 0.01 | 92 | 1015.7 |
| 20260508083721 | 61 | 145 | 3.0 | 5.0 | 0.00 | 0.01 | 0.01 | 93 | 1015.6 |
| 20260508083219 | 61 | 163 | 2.0 | 2.0 | 0.00 | 0.01 | 0.01 | 93 | 1016.2 |
| 20260508082713 | 61 | 195 | 0.0 | 0.0 | 0.00 | 0.01 | 0.01 | 92 | 1016.5 |
| 20260508082212 | 61 | 195 | 0.0 | 0.0 | 0.00 | 0.01 | 0.01 | 91 | 1016.7 |
| 20260508081709 | 61 | 195 | 0.0 | 0.0 | 0.00 | 0.01 | 0.01 | 90 | 1016.6 |
| 20260508081205 | 62 | 195 | 0.0 | 0.0 | 0.07 | 0.01 | 0.01 | 90 | 1016.7 |
| 20260508080702 | 62 | 222 | 0.0 | 0.0 | 0.07 | 0.01 | 0.01 | 88 | 1017.1 |
| 20260508080200 | 62 | 239 | 0.0 | 0.0 | 0.07 | 0.01 | 0.01 | 86 | 1017.2 |
| 20260508075656 | 62 | 240 | 1.0 | 1.0 | 0.00 | 0.00 | 0.00 | 85 | 1017.2 |
| 20260508075154 | 62 | 239 | 0.0 | 0.0 | 0.00 | 0.00 | 0.00 | 85 | 1017.2 |
| 20260508074651 | 62 | 244 | 0.0 | 0.0 | 0.00 | 0.00 | 0.00 | 85 | 1017.3 |
| 20260508074148 | 62 | 205 | 1.0 | 1.0 | 0.00 | 0.00 | 0.00 | 85 | 1017.0 |
| 20260508073645 | 62 | 189 | 0.0 | 0.0 | 0.00 | 0.00 | 0.00 | 85 | 1016.6 |
| 20260508073143 | 62 | 189 | 0.0 | 0.0 | 0.00 | 0.00 | 0.00 | 86 | 1016.5 |
| 20260508072638 | 62 | 189 | 0.0 | 0.0 | 0.00 | 0.00 | 0.00 | 86 | 1016.6 |
| 20260508072136 | 61 | 189 | 0.0 | 0.0 | 0.00 | 0.00 | 0.00 | 86 | 1016.8 |
| 20260508071633 | 61 | 189 | 0.0 | 0.0 | 0.00 | 0.00 | 0.00 | 87 | 1016.8 |
| 20260508071131 | 60 | 189 | 0.0 | 0.0 | 0.00 | 0.00 | 0.00 | 88 | 1016.7 |
| 20260508070629 | 60 | 189 | 0.0 | 0.0 | 0.00 | 0.00 | 0.00 | 88 | 1016.8 |
| 20260508070127 | 60 | 189 | 0.0 | 0.0 | 0.00 | 0.00 | 0.00 | 88 | 1016.9 |
| 20260508065624 | 60 | 188 | 0.0 | 0.0 | 0.00 | 0.00 | 0.00 | 88 | 1016.8 |
| 20260508065122 | 60 | 188 | 0.0 | 0.0 | 0.00 | 0.00 | 0.00 | 88 | 1016.8 |
| 20260508064619 | 60 | 189 | 0.0 | 0.0 | 0.00 | 0.00 | 0.00 | 88 | 1017.2 |
| 20260508064117 | 60 | 189 | 0.0 | 0.0 | 0.00 | 0.00 | 0.00 | 88 | 1017.3 |
| 20260508063614 | 60 | 189 | 0.0 | 0.0 | 0.00 | 0.00 | 0.00 | 87 | 1017.4 |
| 20260508063112 | 60 | 189 | 0.0 | 0.0 | 0.00 | 0.00 | 0.00 | 88 | 1017.2 |
| 20260508062610 | 60 | 189 | 0.0 | 0.0 | 0.00 | 0.00 | 0.00 | 88 | 1017.4 |
| 20260508062106 | 60 | 189 | 0.0 | 0.0 | 0.00 | 0.00 | 0.00 | 88 | 1017.4 |
| 20260508061604 | 60 | 189 | 0.0 | 0.0 | 0.00 | 0.00 | 0.00 | 88 | 1017.2 |
| 20260508061101 | 60 | 189 | 0.0 | 0.0 | 0.00 | 0.00 | 0.00 | 88 | 1017.2 |
| 20260508060557 | 60 | 189 | 0.0 | 0.0 | 0.00 | 0.00 | 0.00 | 88 | 1017.3 |
| 20260508060055 | 60 | 189 | 0.0 | 0.0 | 0.00 | 0.00 | 0.00 | 88 | 1017.0 |
| 20260508055550 | 60 | 189 | 0.0 | 0.0 | 0.00 | 0.00 | 0.00 | 88 | 1017.2 |
| 20260508055047 | 60 | 189 | 0.0 | 0.0 | 0.00 | 0.00 | 0.00 | 88 | 1017.3 |
| 20260508054544 | 60 | 189 | 0.0 | 0.0 | 0.00 | 0.00 | 0.00 | 87 | 1017.2 |
| 20260508054041 | 60 | 189 | 0.0 | 0.0 | 0.00 | 0.00 | 0.00 | 87 | 1017.2 |
| 20260508053538 | 60 | 189 | 0.0 | 0.0 | 0.00 | 0.00 | 0.00 | 87 | 1017.3 |
| 20260508053036 | 60 | 189 | 0.0 | 0.0 | 0.00 | 0.00 | 0.00 | 86 | 1017.6 |
| 20260508052533 | 60 | 189 | 0.0 | 0.0 | 0.00 | 0.00 | 0.00 | 86 | 1017.4 |
| 20260508052030 | 60 | 189 | 0.0 | 0.0 | 0.00 | 0.00 | 0.00 | 86 | 1017.4 |
| 20260508051526 | 60 | 189 | 0.0 | 0.0 | 0.00 | 0.00 | 0.00 | 86 | 1017.4 |
| 20260508051021 | 60 | 189 | 0.0 | 0.0 | 0.00 | 0.00 | 0.00 | 86 | 1017.2 |
| 20260508050518 | 60 | 189 | 0.0 | 0.0 | 0.00 | 0.00 | 0.00 | 85 | 1017.0 |
| 20260508050015 | 60 | 189 | 0.0 | 0.0 | 0.00 | 0.00 | 0.00 | 86 | 1017.1 |
| 20260508045512 | 60 | 189 | 0.0 | 0.0 | 0.00 | 0.00 | 0.00 | 85 | 1017.4 |
| 20260508045009 | 60 | 189 | 0.0 | 0.0 | 0.00 | 0.00 | 0.00 | 85 | 1017.5 |
| 20260508044506 | 61 | 189 | 0.0 | 0.0 | 0.00 | 0.00 | 0.00 | 85 | 1017.3 |
| 20260508044002 | 61 | 189 | 0.0 | 0.0 | 0.00 | 0.00 | 0.00 | 84 | 1017.3 |
| 20260508043459 | 61 | 189 | 0.0 | 0.0 | 0.00 | 0.00 | 0.00 | 84 | 1017.1 |
| 20260508042955 | 61 | 189 | 0.0 | 0.0 | 0.00 | 0.00 | 0.00 | 83 | 1017.1 |
| 20260508042453 | 61 | 189 | 0.0 | 0.0 | 0.00 | 0.00 | 0.00 | 83 | 1017.0 |
| 20260508041950 | 61 | 189 | 0.0 | 0.0 | 0.00 | 0.00 | 0.00 | 82 | 1017.3 |
| 20260508041446 | 62 | 189 | 0.0 | 0.0 | 0.00 | 0.00 | 0.00 | 82 | 1017.3 |
| 20260508040943 | 62 | 189 | 0.0 | 0.0 | 0.00 | 0.00 | 0.00 | 81 | 1017.0 |
| 20260508040440 | 62 | 189 | 0.0 | 0.0 | 0.00 | 0.00 | 0.00 | 81 | 1017.1 |
| 20260508035938 | 62 | 189 | 0.0 | 0.0 | 0.00 | 0.00 | 0.00 | 80 | 1017.0 |
| 20260508035435 | 62 | 189 | 0.0 | 0.0 | 0.00 | 0.00 | 0.00 | 80 | 1017.1 |
| 20260508034931 | 63 | 189 | 0.0 | 0.0 | 0.00 | 0.00 | 0.00 | 80 | 1017.1 |
| 20260508034429 | 62 | 189 | 0.0 | 0.0 | 0.00 | 0.00 | 0.00 | 79 | 1017.1 |
| 20260508033925 | 62 | 189 | 0.0 | 0.0 | 0.00 | 0.00 | 0.00 | 78 | 1017.1 |
| 20260508033424 | 63 | 189 | 0.0 | 0.0 | 0.00 | 0.00 | 0.00 | 78 | 1016.9 |
| 20260508032921 | 63 | 189 | 0.0 | 0.0 | 0.00 | 0.00 | 0.00 | 77 | 1017.1 |
| 20260508032418 | 63 | 189 | 0.0 | 0.0 | 0.00 | 0.00 | 0.00 | 76 | 1017.1 |
| 20260508031915 | 63 | 189 | 0.0 | 0.0 | 0.00 | 0.00 | 0.00 | 77 | 1017.0 |
| 20260508031412 | 63 | 189 | 0.0 | 0.0 | 0.00 | 0.00 | 0.00 | 76 | 1017.2 |
| 20260508030908 | 63 | 189 | 0.0 | 0.0 | 0.00 | 0.00 | 0.00 | 76 | 1016.9 |
| 20260508030405 | 64 | 189 | 0.0 | 0.0 | 0.00 | 0.00 | 0.00 | 75 | 1016.9 |
| 20260508025902 | 64 | 189 | 0.0 | 0.0 | 0.00 | 0.00 | 0.00 | 74 | 1016.7 |
| 20260508025359 | 64 | 189 | 0.0 | 0.0 | 0.00 | 0.00 | 0.00 | 73 | 1016.8 |
| 20260508024856 | 64 | 189 | 0.0 | 0.0 | 0.00 | 0.00 | 0.00 | 73 | 1017.0 |
| 20260508024352 | 64 | 189 | 0.0 | 0.0 | 0.00 | 0.00 | 0.00 | 73 | 1016.9 |
| 20260508023849 | 65 | 189 | 0.0 | 0.0 | 0.00 | 0.00 | 0.00 | 72 | 1016.8 |
| 20260508023346 | 65 | 189 | 0.0 | 0.0 | 0.00 | 0.00 | 0.00 | 72 | 1017.1 |
| 20260508022843 | 65 | 189 | 0.0 | 0.0 | 0.00 | 0.00 | 0.00 | 72 | 1016.7 |
| 20260508022338 | 65 | 189 | 0.0 | 0.0 | 0.00 | 0.00 | 0.00 | 72 | 1016.8 |
| 20260508021836 | 65 | 189 | 0.0 | 0.0 | 0.00 | 0.00 | 0.00 | 72 | 1016.7 |
| 20260508021332 | 65 | 188 | 0.0 | 0.0 | 0.00 | 0.00 | 0.00 | 71 | 1016.6 |
| 20260508020828 | 66 | 188 | 0.0 | 0.0 | 0.00 | 0.00 | 0.00 | 71 | 1016.5 |
| 20260508020326 | 66 | 187 | 1.0 | 1.0 | 0.00 | 0.00 | 0.00 | 70 | 1016.5 |
| 20260508015823 | 66 | 177 | 1.0 | 1.0 | 0.00 | 0.00 | 0.00 | 71 | 1016.4 |
| 20260508015320 | 66 | 185 | 0.0 | 0.0 | 0.00 | 0.00 | 0.00 | 71 | 1016.5 |
| 20260508014817 | 66 | 188 | 0.0 | 0.0 | 0.00 | 0.00 | 0.00 | 71 | 1016.5 |
| 20260508014314 | 66 | 188 | 0.0 | 0.0 | 0.00 | 0.00 | 0.00 | 70 | 1016.5 |
| 20260508013809 | 66 | 187 | 0.0 | 0.0 | 0.00 | 0.00 | 0.00 | 69 | 1016.5 |
| 20260508013306 | 66 | 193 | 0.0 | 0.0 | 0.00 | 0.00 | 0.00 | 69 | 1016.7 |
| 20260508012803 | 67 | 197 | 0.0 | 1.0 | 0.00 | 0.00 | 0.00 | 69 | 1016.5 |
| 20260508012300 | 67 | 196 | 0.0 | 1.0 | 0.00 | 0.00 | 0.00 | 68 | 1016.3 |
| 20260508011758 | 67 | 195 | 0.0 | 1.0 | 0.00 | 0.00 | 0.00 | 68 | 1016.3 |
| 20260508011255 | 67 | 194 | 0.0 | 0.0 | 0.00 | 0.00 | 0.00 | 68 | 1016.2 |
| 20260508010752 | 67 | 196 | 0.0 | 0.0 | 0.00 | 0.00 | 0.00 | 67 | 1016.5 |
| 20260508010250 | 67 | 200 | 0.0 | 0.0 | 0.00 | 0.00 | 0.00 | 67 | 1016.6 |
| 20260508005747 | 67 | 196 | 1.0 | 2.0 | 0.00 | 0.00 | 0.00 | 66 | 1016.3 |
| 20260508005244 | 68 | 196 | 0.0 | 0.0 | 0.00 | 0.00 | 0.00 | 66 | 1016.6 |
| 20260508004739 | 68 | 184 | 1.0 | 1.0 | 0.00 | 0.00 | 0.00 | 65 | 1016.4 |
| 20260508004236 | 68 | 193 | 1.0 | 1.0 | 0.00 | 0.00 | 0.00 | 65 | 1016.4 |
| 20260508003732 | 68 | 174 | 3.0 | 3.0 | 0.00 | 0.00 | 0.00 | 65 | 1016.7 |
| 20260508003230 | 68 | 195 | 1.0 | 1.0 | 0.00 | 0.00 | 0.00 | 65 | 1016.3 |
| 20260508002726 | 68 | 197 | 1.0 | 1.0 | 0.00 | 0.00 | 0.00 | 64 | 1016.5 |
| 20260508002224 | 68 | 186 | 0.0 | 1.0 | 0.00 | 0.00 | 0.00 | 64 | 1016.5 |
| 20260508001719 | 68 | 194 | 0.0 | 0.0 | 0.00 | 0.00 | 0.00 | 64 | 1016.4 |
| 20260508001215 | 68 | 133 | 1.0 | 2.0 | 0.00 | 0.00 | 0.00 | 64 | 1016.7 |
| 20260508000711 | 68 | 192 | 1.0 | 3.0 | 0.00 | 0.00 | 0.00 | 64 | 1016.5 |
| 20260508000211 | 69 | 180 | 4.0 | 5.0 | 0.00 | 0.00 | 0.00 | 64 | 1016.6 |
| 20260507235705 | 69 | 193 | 3.0 | 3.0 | 0.00 | 0.00 | 0.00 | 64 | 1016.4 |
| 20260507235203 | 69 | 197 | 2.0 | 2.0 | 0.00 | 0.00 | 0.00 | 64 | 1016.4 |
| 20260507234659 | 69 | 179 | 1.0 | 2.0 | 0.00 | 0.00 | 0.00 | 64 | 1016.6 |
| 20260507234156 | 69 | 192 | 3.0 | 5.0 | 0.00 | 0.00 | 0.00 | 64 | 1016.4 |
| 20260507233653 | 69 | 181 | 1.0 | 1.0 | 0.00 | 0.00 | 0.00 | 64 | 1016.4 |
| 20260507233151 | 69 | 185 | 1.0 | 2.0 | 0.00 | 0.00 | 0.00 | 63 | 1016.5 |
| 20260507232648 | 70 | 196 | 2.0 | 5.0 | 0.00 | 0.00 | 0.00 | 63 | 1016.4 |
| 20260507232145 | 70 | 205 | 2.0 | 2.0 | 0.00 | 0.00 | 0.00 | 62 | 1016.4 |
| 20260507231641 | 70 | 189 | 2.0 | 2.0 | 0.00 | 0.00 | 0.00 | 62 | 1016.6 |
| 20260507231138 | 70 | 181 | 3.0 | 3.0 | 0.00 | 0.00 | 0.00 | 62 | 1016.7 |
| 20260507230635 | 70 | 216 | 3.0 | 5.0 | 0.00 | 0.00 | 0.00 | 62 | 1016.4 |
| 20260507230132 | 71 | 180 | 2.0 | 2.0 | 0.00 | 0.00 | 0.00 | 61 | 1016.4 |
| 20260507225632 | 72 | 186 | 1.0 | 1.0 | 0.00 | 0.00 | 0.00 | 59 | 1016.4 |
| 20260507225129 | 73 | 166 | 2.0 | 3.0 | 0.00 | 0.00 | 0.00 | 55 | 1016.4 |
| 20260507224624 | 72 | 164 | 0.0 | 1.0 | 0.00 | 0.00 | 0.00 | 53 | 1016.5 |
| 20260507224121 | 73 | 149 | 0.0 | 0.0 | 0.00 | 0.00 | 0.00 | 53 | 1016.5 |
| 20260507223617 | 73 | 158 | 0.0 | 0.0 | 0.00 | 0.00 | 0.00 | 53 | 1016.5 |
| 20260507223114 | 73 | 139 | 0.0 | 1.0 | 0.00 | 0.00 | 0.00 | 53 | 1016.5 |
| 20260507222611 | 73 | 197 | 2.0 | 3.0 | 0.00 | 0.00 | 0.00 | 51 | 1016.5 |
| 20260507222108 | 73 | 160 | 0.0 | 0.0 | 0.00 | 0.00 | 0.00 | 52 | 1016.6 |
| 20260507221604 | 73 | 146 | 0.0 | 1.0 | 0.00 | 0.00 | 0.00 | 52 | 1016.4 |
| 20260507221101 | 72 | 87 | 1.0 | 1.0 | 0.00 | 0.00 | 0.00 | 52 | 1016.7 |
| 20260507220558 | 73 | 126 | 0.0 | 1.0 | 0.00 | 0.00 | 0.00 | 52 | 1016.8 |
| 20260507220055 | 73 | 167 | 0.0 | 0.0 | 0.00 | 0.00 | 0.00 | 52 | 1016.8 |
| 20260507215551 | 74 | 120 | 1.0 | 1.0 | 0.00 | 0.00 | 0.00 | 52 | 1016.7 |
| 20260507215050 | 73 | 83 | 1.0 | 2.0 | 0.00 | 0.00 | 0.00 | 52 | 1016.6 |
| 20260507214546 | 73 | 130 | 0.0 | 1.0 | 0.00 | 0.00 | 0.00 | 53 | 1016.9 |
| 20260507214042 | 73 | 94 | 1.0 | 1.0 | 0.00 | 0.00 | 0.00 | 51 | 1017.1 |
| 20260507213539 | 73 | 136 | 1.0 | 2.0 | 0.00 | 0.00 | 0.00 | 51 | 1016.8 |
| 20260507213036 | 74 | 85 | 0.0 | 1.0 | 0.00 | 0.00 | 0.00 | 51 | 1017.2 |
| 20260507212532 | 74 | 129 | 1.0 | 2.0 | 0.00 | 0.00 | 0.00 | 51 | 1017.1 |
| 20260507212029 | 73 | 109 | 0.0 | 1.0 | 0.00 | 0.00 | 0.00 | 53 | 1017.1 |
| 20260507211526 | 73 | 67 | 1.0 | 1.0 | 0.00 | 0.00 | 0.00 | 53 | 1017.0 |
| 20260507211022 | 73 | 156 | 0.0 | 1.0 | 0.00 | 0.00 | 0.00 | 54 | 1017.2 |
| 20260507210519 | 73 | 109 | 0.0 | 1.0 | 0.00 | 0.00 | 0.00 | 54 | 1017.2 |
| 20260507210016 | 73 | 168 | 0.0 | 0.0 | 0.00 | 0.00 | 0.00 | 54 | 1017.5 |
| 20260507205512 | 74 | 60 | 1.0 | 1.0 | 0.00 | 0.00 | 0.00 | 53 | 1017.0 |
| 20260507205009 | 73 | 205 | 0.0 | 0.0 | 0.00 | 0.00 | 0.00 | 53 | 1017.3 |
| 20260507204505 | 74 | 132 | 2.0 | 3.0 | 0.00 | 0.00 | 0.00 | 53 | 1017.1 |
| 20260507204003 | 74 | 159 | 0.0 | 0.0 | 0.00 | 0.00 | 0.00 | 53 | 1017.1 |
| 20260507203501 | 74 | 107 | 0.0 | 1.0 | 0.00 | 0.00 | 0.00 | 54 | 1017.2 |
| 20260507202957 | 74 | 131 | 2.0 | 2.0 | 0.00 | 0.00 | 0.00 | 51 | 1017.2 |
| 20260507202453 | 73 | 111 | 1.0 | 1.0 | 0.00 | 0.00 | 0.00 | 53 | 1017.5 |
| 20260507201949 | 73 | 63 | 1.0 | 1.0 | 0.00 | 0.00 | 0.00 | 53 | 1017.6 |
| 20260507201449 | 75 | 92 | 1.0 | 2.0 | 0.00 | 0.00 | 0.00 | 53 | 1017.5 |
| 20260507200947 | 74 | 85 | 1.0 | 1.0 | 0.00 | 0.00 | 0.00 | 53 | 1017.8 |
| 20260507200442 | 74 | 146 | 2.0 | 2.0 | 0.00 | 0.00 | 0.00 | 54 | 1017.8 |
| 20260507195938 | 75 | 164 | 2.0 | 2.0 | 0.00 | 0.00 | 0.00 | 52 | 1017.9 |
| 20260507195436 | 74 | 152 | 2.0 | 2.0 | 0.00 | 0.00 | 0.00 | 53 | 1017.7 |
| 20260507194933 | 75 | 96 | 0.0 | 0.0 | 0.00 | 0.00 | 0.00 | 53 | 1017.9 |
| 20260507194430 | 74 | 246 | 0.0 | 0.0 | 0.00 | 0.00 | 0.00 | 50 | 1018.1 |
| 20260507193926 | 75 | 155 | 1.0 | 1.0 | 0.00 | 0.00 | 0.00 | 50 | 1018.3 |
| 20260507193423 | 75 | 309 | 3.0 | 3.0 | 0.00 | 0.00 | 0.00 | 50 | 1018.1 |
| 20260507192920 | 74 | 104 | 1.0 | 2.0 | 0.00 | 0.00 | 0.00 | 51 | 1018.1 |
| 20260507192415 | 74 | 283 | 1.0 | 2.0 | 0.00 | 0.00 | 0.00 | 51 | 1018.1 |
| 20260507191913 | 76 | 63 | 1.0 | 1.0 | 0.00 | 0.00 | 0.00 | 51 | 1018.4 |
| 20260507191409 | 76 | 305 | 3.0 | 3.0 | 0.00 | 0.00 | 0.00 | 49 | 1018.4 |
| 20260507190905 | 75 | 157 | 1.0 | 1.0 | 0.00 | 0.00 | 0.00 | 52 | 1018.6 |
| 20260507190403 | 75 | 69 | 1.0 | 2.0 | 0.00 | 0.00 | 0.00 | 52 | 1018.5 |
| 20260507185902 | 74 | 277 | 1.0 | 2.0 | 0.00 | 0.00 | 0.00 | 56 | 1018.7 |
| 20260507185359 | 74 | 343 | 1.0 | 1.0 | 0.00 | 0.00 | 0.00 | 52 | 1018.3 |
| 20260507184856 | 73 | 132 | 2.0 | 2.0 | 0.00 | 0.00 | 0.00 | 53 | 1018.6 |
| 20260507184354 | 73 | 351 | 4.0 | 5.0 | 0.00 | 0.00 | 0.00 | 53 | 1018.5 |
| 20260507183850 | 73 | 274 | 1.0 | 2.0 | 0.00 | 0.00 | 0.00 | 52 | 1018.6 |
| 20260507183347 | 73 | 15 | 3.0 | 3.0 | 0.00 | 0.00 | 0.00 | 51 | 1018.6 |
| 20260507182845 | 73 | 123 | 2.0 | 3.0 | 0.00 | 0.00 | 0.00 | 51 | 1018.8 |
| 20260507182341 | 73 | 326 | 4.0 | 7.0 | 0.00 | 0.00 | 0.00 | 51 | 1018.8 |
| 20260507181837 | 72 | 278 | 2.0 | 3.0 | 0.00 | 0.00 | 0.00 | 53 | 1019.1 |
| 20260507181333 | 71 | 44 | 2.0 | 2.0 | 0.00 | 0.00 | 0.00 | 54 | 1018.8 |
| 20260507180830 | 71 | 343 | 2.0 | 3.0 | 0.00 | 0.00 | 0.00 | 53 | 1019.1 |
| 20260507180327 | 72 | 35 | 1.0 | 1.0 | 0.00 | 0.00 | 0.00 | 54 | 1019.3 |
| 20260507175822 | 72 | 320 | 3.0 | 3.0 | 0.00 | 0.00 | 0.00 | 54 | 1019.2 |
| 20260507175320 | 71 | 358 | 1.0 | 2.0 | 0.00 | 0.00 | 0.00 | 56 | 1019.4 |
| 20260507174817 | 70 | 261 | 1.0 | 1.0 | 0.00 | 0.00 | 0.00 | 56 | 1019.4 |
| 20260507174315 | 70 | 306 | 3.0 | 3.0 | 0.00 | 0.00 | 0.00 | 56 | 1019.4 |
| 20260507173812 | 71 | 263 | 3.0 | 5.0 | 0.00 | 0.00 | 0.00 | 56 | 1019.6 |
| 20260507173309 | 70 | 69 | 1.0 | 1.0 | 0.00 | 0.00 | 0.00 | 56 | 1019.9 |
| 20260507172805 | 70 | 312 | 1.0 | 1.0 | 0.00 | 0.00 | 0.00 | 56 | 1019.8 |
| 20260507172306 | 70 | 11 | 2.0 | 2.0 | 0.00 | 0.00 | 0.00 | 56 | 1020.2 |
| 20260507171758 | 70 | 246 | 2.0 | 2.0 | 0.00 | 0.00 | 0.00 | 57 | 1020.1 |
| 20260507171255 | 69 | 58 | 2.0 | 2.0 | 0.00 | 0.00 | 0.00 | 55 | 1020.3 |
| 20260507170752 | 69 | 330 | 4.0 | 5.0 | 0.00 | 0.00 | 0.00 | 56 | 1020.5 |
| 20260507170248 | 70 | 308 | 5.0 | 7.0 | 0.00 | 0.00 | 0.00 | 57 | 1020.7 |
| 20260507165744 | 69 | 21 | 0.0 | 0.0 | 0.00 | 0.00 | 0.00 | 59 | 1020.8 |
| 20260507165240 | 70 | 283 | 4.0 | 6.0 | 0.00 | 0.00 | 0.00 | 57 | 1020.8 |
| 20260507164737 | 69 | 100 | 1.0 | 1.0 | 0.00 | 0.00 | 0.00 | 60 | 1020.7 |
| 20260507164234 | 68 | 286 | 2.0 | 2.0 | 0.00 | 0.00 | 0.00 | 60 | 1020.8 |
| 20260507163731 | 68 | 313 | 3.0 | 6.0 | 0.00 | 0.00 | 0.00 | 60 | 1020.8 |
| 20260507163229 | 68 | 303 | 3.0 | 3.0 | 0.00 | 0.00 | 0.00 | 60 | 1021.1 |
| 20260507162724 | 68 | 303 | 1.0 | 1.0 | 0.00 | 0.00 | 0.00 | 60 | 1021.0 |
| 20260507162221 | 67 | 38 | 0.0 | 0.0 | 0.00 | 0.00 | 0.00 | 63 | 1021.1 |
| 20260507161718 | 67 | 58 | 1.0 | 2.0 | 0.00 | 0.00 | 0.00 | 62 | 1020.8 |
| 20260507161214 | 66 | 210 | 1.0 | 2.0 | 0.00 | 0.00 | 0.00 | 65 | 1020.8 |
| 20260507160710 | 66 | 162 | 1.0 | 1.0 | 0.00 | 0.00 | 0.00 | 64 | 1021.1 |
| 20260507160207 | 66 | 292 | 1.0 | 2.0 | 0.00 | 0.00 | 0.00 | 63 | 1020.9 |
| 20260507155702 | 67 | 116 | 0.0 | 0.0 | 0.00 | 0.00 | 0.00 | 64 | 1020.9 |
| 20260507155159 | 66 | 131 | 0.0 | 1.0 | 0.00 | 0.00 | 0.00 | 65 | 1021.0 |
| 20260507154655 | 66 | 178 | 1.0 | 1.0 | 0.00 | 0.00 | 0.00 | 65 | 1021.2 |
| 20260507154153 | 66 | 62 | 1.0 | 1.0 | 0.00 | 0.00 | 0.00 | 65 | 1021.0 |
| 20260507153649 | 66 | 353 | 0.0 | 1.0 | 0.00 | 0.00 | 0.00 | 65 | 1021.1 |
| 20260507153146 | 66 | 262 | 1.0 | 2.0 | 0.00 | 0.00 | 0.00 | 67 | 1021.1 |
| 20260507152642 | 65 | 285 | 1.0 | 2.0 | 0.00 | 0.00 | 0.00 | 66 | 1021.2 |
| 20260507152138 | 66 | 320 | 2.0 | 3.0 | 0.00 | 0.00 | 0.00 | 64 | 1021.3 |
| 20260507151635 | 65 | 14 | 1.0 | 1.0 | 0.00 | 0.00 | 0.00 | 67 | 1021.2 |
| 20260507151132 | 64 | 78 | 0.0 | 1.0 | 0.00 | 0.00 | 0.00 | 68 | 1021.4 |
| 20260507150629 | 63 | 279 | 1.0 | 1.0 | 0.00 | 0.00 | 0.00 | 71 | 1021.5 |
| 20260507150125 | 62 | 31 | 3.0 | 3.0 | 0.00 | 0.00 | 0.00 | 71 | 1021.4 |
| 20260507145626 | 63 | 297 | 4.0 | 6.0 | 0.00 | 0.00 | 0.00 | 70 | 1021.6 |